星链-37117(STARLINK-37117)

导读

STARLINK-37117(NORAD编号68212)是美国太空探索技术公司(SpaceX)研发运营的Starlink星链星座卫星,采用Starlink V1.0平台设计。 该卫星运行在近地轨道,近地点约570.24公里、远地点约573.93公里,轨道倾角70.003°,绕行周期约96.11分钟,每日绕地球运行近15圈。 作为Starlink全球卫星互联网项目的组成部分,它旨在为全球偏远地区提供高速低延迟互联网服务,助力缩小数字鸿沟,同时可支持军事、航空等领域的通信需求。

基本信息
目录编号:
68212
目录名称:
STARLINK-37117
国际标识:
2026-053F
轨道中心:
EARTH
卫星名称:
星链-37117
卫星全名:
星链-37117(STARLINK-37117)
卫星状态:
在轨 (已飞行85 天)
发射日期:
2026-03-17 UTC
国别 :
美国 (US)
星等 :
--
轨道信息
数据来源 国际轨道数据
星历时间: 2026-06-09T22:44:48+0800
21小时前
查看轨道信息
半长轴: 6843.642km
偏心率: 0.0001747
轨道倾角: 97.286°
近地点辐角 90.579°
升交点赤经 35.813°
平近点角 269.566°
近地点: 464.309km
远地点: 466.701km
周期: 93.905分钟
每日圈数: 15.334579
详细信息
固有亮度:
5
最大亮度:
2.5
卫星平台:
Starlink V1.0
覆盖范围:
全球
运营商:
太空探索技术公司
运营商所在国:
美国
制造商(研发单位):
太空探索技术公司
制造商所在国:
美国
使用方式:
暂无
卫星简介
Starlink 计划是 SpaceX 推出的全球卫星互联网项目,通过发射低轨道卫星,为全球尤其是偏远地区提供高速、低延迟的互联网服务。自 2019 年起,Starlink 已部署数千颗卫星,旨在缩小全球数字鸿沟,推动互联网普及。该项目还为军事、航空等行业提供通信支持,带来广泛经济效益。
2D轨道图
3D轨道图
轨道高度分析图
轨道倾角分析图
轨道综合分析图
查看轨道综合分析图